Regional Weather Roundup
Issued by NWS Portland, ME

Current Version | Previous Version | Text Only | Print | Product List | Glossary Off
Versions: 1 2 3 4 5 6 7 8 9 10 11 12 13 14 15 16 17 18 19 20 21 22 23 24 25 26 27 28 29 30 31 32 33 34 35 36 37 38 39 40 41 42 43 44 45 46 47 48 49 50

000
ASUS41 KGYX 171205
RWRGYX
WEATHER ROUNDUP FOR MAINE AND NEW HAMPSHIRE
NATIONAL WEATHER SERVICE GRAY ME
800 AM EDT THU APR 17 2014

MEZ002-005-006-010-012-015-018-020-021-024-026-027-029-171300-
MAINE

CITY           SKY/WX    TMP DP  RH WIND       PRES   REMARKS
PORTLAND       MOSUNNY   30  15  53 NE8       30.83R
6HR MIN TEMP:  22; 6HR MAX TEMP:  30;

SANFORD        SUNNY     30 -18  11 NE12      30.81R
BAR HARBOR     SUNNY     28  18  64 N13       30.82S WCI  18
WISCASSET      SUNNY     30  15  53 VRB5      30.83R
6HR MIN TEMP:  21; 6HR MAX TEMP:  30;

ROCKLAND       SUNNY     30  16  55 NE13G20   30.82R
FRYEBURG       SUNNY     29  19  66 CALM      30.81R
6HR MIN TEMP:  14; 6HR MAX TEMP:  29;

LEWISTONAUBURN SUNNY     27  16  63 N3        30.81R
AUGUSTA        SUNNY     26  15  63 NE7       30.81R
6HR MIN TEMP:  19; 6HR MAX TEMP:  26;

WATERVILLE     SUNNY     27  16  63 NE3       30.78R
BANGOR         MOSUNNY   28  15  58 NE6       30.83R
6HR MIN TEMP:  19; 6HR MAX TEMP:  28;

GREENVILLE       N/A     22  11  62 CALM      30.71R
6HR MIN TEMP:  14; 6HR MAX TEMP:  23;

MILLINOCKET    SUNNY     24  15  68 CALM      30.82R
6HR MIN TEMP:  16; 6HR MAX TEMP:  24;

HOULTON        SUNNY     23  13  65 SW5       30.79R
6HR MIN TEMP:  10; 6HR MAX TEMP:  23;

PRESQUE ISLE   NOT AVBL
FRENCHVILLE    SUNNY     16  10  77 SW5       30.73R
6HR MIN TEMP:  12; 6HR MAX TEMP:  16;

CARIBOU        SUNNY     20  13  74 SW6       30.76R
6HR MIN TEMP:  14; 6HR MAX TEMP:  20;

$$

NHZ002-005-008-009-011-012-014-171300-
NEW HAMPSHIRE

CITY           SKY/WX    TMP DP  RH WIND       PRES   REMARKS
PORTSMOUTH     PTSUNNY   31  14  49 NE7       30.80R
ROCHESTER      SUNNY     28  15  58 N6        30.80R
6HR MIN TEMP:  21; 6HR MAX TEMP:  28;

NASHUA         SUNNY     30  14  51 N3        30.81R
MANCHESTER     MOSUNNY   30  14  51 VRB6      30.79R
6HR MIN TEMP:  27; 6HR MAX TEMP:  30;

CONCORD        MOSUNNY   28  17  63 N6        30.80R
6HR MIN TEMP:  18; 6HR MAX TEMP:  28;

LACONIA        SUNNY     27  12  54 NE7       30.79R
PLYMOUTH         N/A     25  20  83 CALM      30.80R
BERLIN         MOSUNNY   20  15  81 CALM      30.75R
6HR MIN TEMP:  10; 6HR MAX TEMP:  20;

WHITEFIELD     SUNNY     18  16  92 CALM      30.74R
6HR MIN TEMP:  11; 6HR MAX TEMP:  18;

JAFFREY        MOSUNNY   27  11  51 VRB3      30.74R
6HR MIN TEMP:  20; 6HR MAX TEMP:  27;

LEBANON        SUNNY     25  18  74 CALM      30.78R
6HR MIN TEMP:  19; 6HR MAX TEMP:  25;

MT WASHINGTON  MOSUNNY   21   0  39 W9          N/A
6HR MIN TEMP:  16; 6HR MAX TEMP:  22;

$$

VTZ005-007-008-171300-
VERMONT

CITY           SKY/WX    TMP DP  RH WIND       PRES   REMARKS
ST JOHNSBURY     N/A     20  14  77 MISG      30.76R
MONTPELIER     SUNNY     21  17  84 CALM      30.77R
BURLINGTON     MOSUNNY   28  17  63 E5        30.76R
$$

MAZ007-012-024-CTZ003-RIZ002-NYZ038-NYZ072-171300-
SOUTHERN NEW ENGLAND AND NY

CITY           SKY/WX    TMP DP  RH WIND       PRES   REMARKS
BOSTON         MOSUNNY   35  20  54 NE20G25   30.78R
WORCESTER      SUNNY     27  16  63 NE12      30.71R WCI  17
NANTUCKET      PTSUNNY   37  25  61 NE24G33   30.69R
PROVIDENCE     MOSUNNY   35  21  56 NE17G26   30.74R
HARTFORD       MOSUNNY   33  19  56 NE12      30.75R
ALBANY         PTSUNNY   30  21  69 CALM      30.74R
NEW YORK CITY  MOSUNNY   37  21  52 NE17      30.71R
$$

ANZ081-ANZ082-ANZ150-NHZ014-MEZ023>029-171300-
COASTAL MARINE OBSERVATIONS

STATION/POSITION TIME  TEMP    WIND        PRES    WAVE
                       AIR SEA DIR/SP/G            HT/PER
                 (UTC) (F)     (DEG/KT/KT) (MB)    (FT/S)
MOUNT DESERT ROC 1200   32                 1042.3R
MATINICUS ROCK   1100   30      50/ 22/ 23 1042.3R
PORTLAND WX BUOY 1200   31 39   50/ 14/ 17 1043.7R   4/11
WELLS            1200   29 36   20/  8/ 11 1042.8R
ISLE OF SHOALS   1100   31      50/ 25/ 27 1040.9R
JEFFREYS LEDGE   1100      40                N/A     7/11
CASHES LEDGE BUO 1200   33 40   50/ 21/ 23 1041.8R   7/ 6
$$

.............KEY..............
   WCI - WIND CHILL
   TC  - TEMPERATURE IN CELSIUS
   VSB - VISIBILITY IN MILES
   HX  - HEAT INDEX
   FAIR- INDICATES FEW OR NO CLOUDS BELOW 12,000 FT, WITH NO
         SIGNIFICANT WEATHER AND/OR OBSTRUCTIONS TO VISIBILITY.





USA.gov is the U.S. government's official web portal to all federal, state and local government web resources and services.